• Processing (Info)

  • MPEC 2007-E64 : 2007 EM26

    The following Minor Planet Electronic Circular may be linked-to from your own Web pages, but must not otherwise be redistributed electronically.

    A form allowing access to any MPEC is at the bottom of this page.


    Read MPEC 2007-E63 Read MPEC 2007-E65


    M.P.E.C. 2007-E64                                Issued 2007 Mar. 13, 01:56 UT
    
         The Minor Planet Electronic Circulars contain information on unusual
             minor planets and routine data on comets.  They are published
       on behalf of Commission 20 of the International Astronomical Union by the
              Minor Planet Center, Smithsonian Astrophysical Observatory,
                              Cambridge, MA 02138, U.S.A.
    
                 Prepared using the Tamkin Foundation Computer Network
    
                                  MPC@CFA.HARVARD.EDU
              URL http://cfa-www.harvard.edu/iau/mpc.html  ISSN 1523-6714
    
                                       2007 EM26
    
    Observations:
         K07E26M* C2007 03 12.25071 10 15 11.44 +08 17 07.3          19.1 V EE064G96
         K07E26M  C2007 03 12.25929 10 15 12.56 +08 18 29.7          19.4 V EE064G96
         K07E26M  C2007 03 12.26786 10 15 13.71 +08 19 52.7          19.6 V EE064G96
         K07E26M  C2007 03 12.27645 10 15 14.83 +08 21 14.9          19.4 V EE064G96
         K07E26M  C2007 03 12.31875 10 15 20.41 +08 28 02.0          20.1 V EE064G96
         K07E26M  C2007 03 12.31906 10 15 20.44 +08 28 05.0          20.2 V EE064G96
         K07E26M  C2007 03 12.31936 10 15 20.48 +08 28 07.9          20.2 V EE064G96
         K07E26M  C2007 03 12.31968 10 15 20.52 +08 28 11.2          20.3 V EE064G96
         K07E26M  C2007 03 12.38994 10 15 29.98 +08 39 24.5          20.0 V EE064G96
         K07E26M  C2007 03 12.39142 10 15 30.16 +08 39 39.7          20.5 V EE064G96
         K07E26M  C2007 03 12.39289 10 15 30.38 +08 39 53.0          20.1 V EE064G96
         K07E26M  C2007 03 12.39436 10 15 30.60 +08 40 07.6          20.3 V EE064G96
         K07E26M  C2007 03 12.80901 10 16 36.75 +09 46 03.0                 EE064246
         K07E26M  C2007 03 12.81089 10 16 36.95 +09 46 20.5                 EE064246
         K07E26M  C2007 03 12.81175 10 16 37.18 +09 46 28.3                 EE064246
         K07E26M  C2007 03 12.81330 10 16 37.28 +09 46 44.8                 EE064246
         K07E26M  C2007 03 12.81396 10 16 37.34 +09 46 50.5                 EE064246
         K07E26M  C2007 03 12.81442 10 16 37.51 +09 46 55.1                 EE064246
         K07E26M  C2007 03 12.84391810 16 41.80 +09 51 37.3          19.1 R EE064143
         K07E26M  C2007 03 12.85578910 16 43.44 +09 53 29.6          19.5 R EE064143
         K07E26M  C2007 03 12.95824 10 16 57.43 +10 09 44.7          19.6 R EE064204
         K07E26M  C2007 03 12.96454 10 16 58.30 +10 10 44.2                 EE064204
    
    Observer details:
    143 Gnosca.  Observer S. Sposetti.  0.40-m f/4 reflector + CCD.
    204 Schiaparelli Observatory.  Observer L. Buzzi.  0.60-m f/4.64 reflector
        + CCD.
    246 Klet Observatory-KLENOT.  Observer M. Tichy.  1.06-m KLENOT Telescope
        + CCD.
    G96 Mt. Lemmon Survey.  Observer R. A. Kowalski.  Measurers E. C. Beshore,
        E. J. Christensen, G. J. Garradd, A. R. Gibbs, A. D. Grauer, R. E. Hill,
        R. A. Kowalski, S. M. Larson, R. H. McNaught.  1.5-m reflector + CCD.
    
    Orbital elements:
    2007 EM26                                                Earth MOID = 0.1612 AU
    Epoch 2007 Apr. 10.0 TT = JDT 2454200.5                 MPC
    M  26.92339              (2000.0)            P               Q
    n   0.55670289     Peri.  341.90400     -0.88192694     -0.46384117
    a   1.4634809      Node   169.22787     +0.46861748     -0.88199944
    e   0.2179069      Incl.   26.70762     +0.05101509     +0.08323676
    P   1.77           H   22.6           G   0.15           U   8
    Residuals in seconds of arc
    070312 G96  0.0   0.3+    070312 G96  0.0   0.7-    070312 246  1.0-  0.5+
    070312 G96  0.1-  0.1-    070312 G96  0.4-  0.3+    070312 246  0.6+  0.7+
    070312 G96  0.2+  0.4+    070312 G96  0.1-  0.5-    070312 143  0.2-  0.0
    070312 G96  0.1+  0.2-    070312 G96  0.2+  0.1+    070312 143  0.1-  0.9-
    070312 G96  0.1+  0.1-    070312 246  0.5+  0.2+    070312 204  0.0   0.0
    070312 G96  0.0   0.0     070312 246  0.4-  0.2-    070312 204  0.2+  0.2-
    070312 G96  0.0   0.0     070312 246  1.2+  0.7-
    070312 G96  0.1-  0.2+    070312 246  0.5-  1.1+
    
    Ephemeris:
    2007 EM26                a,e,i = 1.46, 0.22, 27                  q = 1.1446
    Date    TT    R. A. (2000) Decl.     Delta      r     Elong.  Phase     V
    2007 03 11    10 12.08   +04 54.3    0.166    1.153   162.3    15.2    19.9
    2007 03 13    10 17.07   +10 16.7    0.169    1.155   160.5    16.7    19.9
    2007 03 15    10 22.17   +15 23.9    0.174    1.157   157.3    19.4    20.1
    2007 03 17    10 27.39   +20 10.0    0.180    1.159   153.5    22.5    20.3
    2007 03 19    10 32.69   +24 31.6    0.188    1.161   149.5    25.8    20.5
    2007 03 21    10 38.07   +28 27.0    0.197    1.164   145.5    29.0    20.7
    2007 03 23    10 43.50   +31 56.2    0.207    1.167   141.8    31.9    20.9
    2007 03 25    10 48.97   +35 00.3    0.219    1.170   138.4    34.5    21.1
    2007 03 27    10 54.45   +37 41.2    0.231    1.173   135.2    36.8    21.3
    2007 03 29    10 59.94   +40 01.0    0.244    1.176   132.3    38.9    21.4
    2007 03 31    11 05.40   +42 01.7    0.257    1.179   129.7    40.7    21.6
    2007 04 02    11 10.83   +43 45.6    0.271    1.183   127.3    42.2    21.8
    2007 04 04    11 16.20   +45 14.5    0.285    1.187   125.1    43.6    21.9
    2007 04 06    11 21.51   +46 30.1    0.299    1.191   123.1    44.7    22.1
    2007 04 08    11 26.74   +47 34.1    0.314    1.195   121.3    45.7    22.2
    2007 04 10    11 31.89   +48 27.7    0.329    1.199   119.6    46.6    22.3
    
    Timothy B. Spahr             (C) Copyright 2007 MPC           M.P.E.C. 2007-E64
    

    Read MPEC 2007-E63 Read MPEC 2007-E65


    MPEC number:

    Enter an MPEC number in one of the following forms:

    • 1997-B01 (the full form)
    • J97B01 (the packed version of the full form)
    • B01 (the abbreviated form)